Time,TemperatureF,DewpointF,PressureIn,WindDirection,WindDirectionDegrees,WindSpeedMPH,WindSpeedGustMPH,Humidity,HourlyPrecipIn,Conditions,Clouds,dailyrainin,SoftwareType,DateUTC
2013-03-15 00:02:00,25.0,23.0,-100.00,West,260,0.0,0.0,93,-99.99,,,-99.99,,2013-03-15 05:02:00,
2013-03-15 00:12:00,25.0,23.0,-100.00,West,260,0.0,0.0,93,-99.99,,,-99.99,,2013-03-15 05:12:00,
2013-03-15 00:21:00,26.0,24.0,-100.00,West,275,0.0,0.0,95,-99.99,,,-99.99,,2013-03-15 05:21:00,
2013-03-15 00:42:00,26.0,24.0,-100.00,West,275,0.0,0.0,95,-99.99,,,-99.99,,2013-03-15 05:42:00,
2013-03-15 00:52:00,26.0,24.0,-100.00,West,275,0.0,0.0,95,-99.99,,,-99.99,,2013-03-15 05:52:00,
2013-03-15 01:02:00,26.0,24.0,-100.00,West,275,0.0,0.0,95,-99.99,,,-99.99,,2013-03-15 06:02:00,
2013-03-15 01:12:00,26.0,24.0,-100.00,West,275,0.0,0.0,95,-99.99,,,-99.99,,2013-03-15 06:12:00,
2013-03-15 01:21:00,26.0,25.0,-100.00,West,280,0.0,0.0,95,-99.99,,,-99.99,,2013-03-15 06:21:00,
2013-03-15 01:42:00,26.0,25.0,-100.00,West,280,0.0,0.0,95,-99.99,,,-99.99,,2013-03-15 06:42:00,
2013-03-15 01:53:00,26.0,25.0,-100.00,West,280,0.0,0.0,95,-99.99,,,-99.99,,2013-03-15 06:53:00,
2013-03-15 02:02:00,26.0,25.0,-100.00,West,280,0.0,0.0,95,-99.99,,,-99.99,,2013-03-15 07:02:00,
2013-03-15 02:12:00,26.0,25.0,-100.00,West,280,0.0,0.0,95,-99.99,,,-99.99,,2013-03-15 07:12:00,
2013-03-15 02:20:00,24.0,23.0,-100.00,West,265,0.0,0.0,96,-99.99,,,-99.99,,2013-03-15 07:20:00,
2013-03-15 02:42:00,24.0,23.0,-100.00,West,265,0.0,0.0,96,-99.99,,,-99.99,,2013-03-15 07:42:00,
2013-03-15 02:52:00,24.0,23.0,-100.00,West,265,0.0,0.0,96,-99.99,,,-99.99,,2013-03-15 07:52:00,
2013-03-15 03:02:00,24.0,23.0,-100.00,West,265,0.0,0.0,96,-99.99,,,-99.99,,2013-03-15 08:02:00,
2013-03-15 03:12:00,24.0,23.0,-100.00,West,265,0.0,0.0,96,-99.99,,,-99.99,,2013-03-15 08:12:00,
2013-03-15 03:21:00,24.0,23.0,-100.00,West,280,0.0,0.0,96,-99.99,,,-99.99,,2013-03-15 08:21:00,
2013-03-15 03:42:00,24.0,23.0,-100.00,West,280,0.0,0.0,96,-99.99,,,-99.99,,2013-03-15 08:42:00,
2013-03-15 03:52:00,24.0,23.0,-100.00,West,280,0.0,0.0,96,-99.99,,,-99.99,,2013-03-15 08:52:00,
2013-03-15 04:02:00,24.0,23.0,-100.00,West,280,0.0,0.0,96,-99.99,,,-99.99,,2013-03-15 09:02:00,
2013-03-15 04:12:00,24.0,23.0,-100.00,West,280,0.0,0.0,96,-99.99,,,-99.99,,2013-03-15 09:12:00,
2013-03-15 04:21:00,25.0,24.0,-100.00,WNW,285,0.0,0.0,97,-99.99,,,-99.99,,2013-03-15 09:21:00,
2013-03-15 04:43:00,25.0,24.0,-100.00,WNW,285,0.0,0.0,97,-99.99,,,-99.99,,2013-03-15 09:43:00,
2013-03-15 04:53:00,25.0,24.0,-100.00,WNW,285,0.0,0.0,97,-99.99,,,-99.99,,2013-03-15 09:53:00,
2013-03-15 05:03:00,25.0,24.0,-100.00,WNW,285,0.0,0.0,97,-99.99,,,-99.99,,2013-03-15 10:03:00,
2013-03-15 05:12:00,25.0,24.0,-100.00,WNW,285,0.0,0.0,97,-99.99,,,-99.99,,2013-03-15 10:12:00,
2013-03-15 05:43:00,26.0,25.0,-100.00,West,280,0.0,0.0,97,-99.99,,,-99.99,,2013-03-15 10:43:00,
2013-03-15 05:52:00,26.0,25.0,-100.00,West,280,0.0,0.0,97,-99.99,,,-99.99,,2013-03-15 10:52:00,
2013-03-15 06:03:00,26.0,25.0,-100.00,West,280,0.0,0.0,97,-99.99,,,-99.99,,2013-03-15 11:03:00,
2013-03-15 06:12:00,26.0,25.0,-100.00,West,280,0.0,0.0,97,-99.99,,,-99.99,,2013-03-15 11:12:00,
2013-03-15 06:20:00,26.0,25.0,-100.00,WNW,290,0.0,0.0,97,-99.99,,,-99.99,,2013-03-15 11:20:00,
2013-03-15 06:22:00,26.0,25.0,-100.00,West,280,0.0,0.0,97,-99.99,,,-99.99,,2013-03-15 11:22:00,
2013-03-15 06:42:00,26.0,25.0,-100.00,WNW,290,0.0,0.0,97,-99.99,,,-99.99,,2013-03-15 11:42:00,
2013-03-15 06:52:00,26.0,25.0,-100.00,WNW,290,0.0,0.0,97,-99.99,,,-99.99,,2013-03-15 11:52:00,
2013-03-15 07:02:00,26.0,25.0,-100.00,WNW,290,0.0,0.0,97,-99.99,,,-99.99,,2013-03-15 12:02:00,
2013-03-15 07:12:00,26.0,25.0,-100.00,WNW,290,0.0,0.0,97,-99.99,,,-99.99,,2013-03-15 12:12:00,
2013-03-15 07:22:00,26.0,25.0,-100.00,NW,305,0.0,0.0,97,-99.99,,,-99.99,,2013-03-15 12:22:00,
2013-03-15 07:42:00,26.0,25.0,-100.00,NW,305,0.0,0.0,97,-99.99,,,-99.99,,2013-03-15 12:42:00,
2013-03-15 07:52:00,26.0,25.0,-100.00,NW,305,0.0,0.0,97,-99.99,,,-99.99,,2013-03-15 12:52:00,
2013-03-15 08:02:00,26.0,25.0,-100.00,NW,305,0.0,0.0,97,-99.99,,,-99.99,,2013-03-15 13:02:00,
2013-03-15 08:12:00,26.0,25.0,-100.00,NW,305,0.0,0.0,97,-99.99,,,-99.99,,2013-03-15 13:12:00,
2013-03-15 08:20:00,26.0,25.0,-100.00,NW,325,0.0,0.0,97,-99.99,,,-99.99,,2013-03-15 13:20:00,
2013-03-15 08:42:00,26.0,25.0,-100.00,NW,325,0.0,0.0,97,-99.99,,,-99.99,,2013-03-15 13:42:00,
2013-03-15 08:52:00,26.0,25.0,-100.00,NW,325,0.0,0.0,97,-99.99,,,-99.99,,2013-03-15 13:52:00,
2013-03-15 09:02:00,26.0,25.0,-100.00,NW,325,0.0,0.0,97,-99.99,,,-99.99,,2013-03-15 14:02:00,
2013-03-15 09:12:00,26.0,25.0,-100.00,NW,325,0.0,0.0,97,-99.99,,,-99.99,,2013-03-15 14:12:00,
2013-03-15 09:22:00,28.0,28.0,-100.00,NNE,15,0.0,0.0,97,-99.99,,,-99.99,,2013-03-15 14:22:00,
2013-03-15 09:42:00,28.0,28.0,-100.00,NNE,15,0.0,0.0,97,-99.99,,,-99.99,,2013-03-15 14:42:00,
2013-03-15 09:53:00,28.0,28.0,-100.00,NNE,15,0.0,0.0,97,-99.99,,,-99.99,,2013-03-15 14:53:00,
2013-03-15 10:02:00,28.0,28.0,-100.00,NNE,15,0.0,0.0,97,-99.99,,,-99.99,,2013-03-15 15:02:00,
2013-03-15 10:13:00,28.0,28.0,-100.00,NNE,15,0.0,0.0,97,-99.99,,,-99.99,,2013-03-15 15:13:00,
2013-03-15 10:20:00,31.0,29.0,-100.00,NNE,15,0.0,0.0,93,-99.99,,,-99.99,,2013-03-15 15:20:00,
2013-03-15 10:43:00,31.0,29.0,-100.00,NNE,15,0.0,0.0,93,-99.99,,,-99.99,,2013-03-15 15:43:00,
2013-03-15 10:53:00,31.0,29.0,-100.00,NNE,15,0.0,0.0,93,-99.99,,,-99.99,,2013-03-15 15:53:00,
2013-03-15 11:03:00,31.0,29.0,-100.00,NNE,15,0.0,0.0,93,-99.99,,,-99.99,,2013-03-15 16:03:00,
2013-03-15 11:12:00,31.0,29.0,-100.00,NNE,15,0.0,0.0,93,-99.99,,,-99.99,,2013-03-15 16:12:00,
2013-03-15 11:21:00,32.0,29.0,-100.00,NE,45,0.0,0.0,90,-99.99,,,-99.99,,2013-03-15 16:21:00,
2013-03-15 11:42:00,32.0,29.0,-100.00,NE,45,0.0,0.0,90,-99.99,,,-99.99,,2013-03-15 16:42:00,
2013-03-15 11:52:00,32.0,29.0,-100.00,NE,45,0.0,0.0,90,-99.99,,,-99.99,,2013-03-15 16:52:00,
2013-03-15 12:02:00,32.0,29.0,-100.00,NE,45,0.0,0.0,90,-99.99,,,-99.99,,2013-03-15 17:02:00,
2013-03-15 12:12:00,32.0,29.0,-100.00,NE,45,0.0,0.0,90,-99.99,,,-99.99,,2013-03-15 17:12:00,
2013-03-15 12:43:00,33.0,26.0,-100.00,NE,40,0.0,0.0,75,-99.99,,,-99.99,,2013-03-15 17:43:00,
2013-03-15 12:53:00,33.0,26.0,-100.00,NE,40,0.0,0.0,75,-99.99,,,-99.99,,2013-03-15 17:53:00,
2013-03-15 13:02:00,33.0,26.0,-100.00,NE,40,0.0,0.0,75,-99.99,,,-99.99,,2013-03-15 18:02:00,
2013-03-15 13:12:00,33.0,26.0,-100.00,NE,40,0.0,0.0,75,-99.99,,,-99.99,,2013-03-15 18:12:00,
2013-03-15 13:22:00,33.0,26.0,-100.00,NE,40,0.0,0.0,75,-99.99,,,-99.99,,2013-03-15 18:22:00,
2013-03-15 13:42:00,33.0,24.0,-100.00,ENE,60,0.0,0.0,67,-99.99,,,-99.99,,2013-03-15 18:42:00,
2013-03-15 13:52:00,33.0,24.0,-100.00,ENE,60,0.0,0.0,67,-99.99,,,-99.99,,2013-03-15 18:52:00,
2013-03-15 14:02:00,33.0,24.0,-100.00,ENE,60,0.0,0.0,67,-99.99,,,-99.99,,2013-03-15 19:02:00,
2013-03-15 14:12:00,33.0,24.0,-100.00,ENE,60,0.0,0.0,67,-99.99,,,-99.99,,2013-03-15 19:12:00,
2013-03-15 14:20:00,33.0,22.0,-100.00,ENE,70,0.0,0.0,63,-99.99,,,-99.99,,2013-03-15 19:20:00,
2013-03-15 14:42:00,33.0,22.0,-100.00,ENE,70,0.0,0.0,63,-99.99,,,-99.99,,2013-03-15 19:42:00,
2013-03-15 14:52:00,33.0,22.0,-100.00,ENE,70,0.0,0.0,63,-99.99,,,-99.99,,2013-03-15 19:52:00,
2013-03-15 15:02:00,33.0,22.0,-100.00,ENE,70,0.0,0.0,63,-99.99,,,-99.99,,2013-03-15 20:02:00,
2013-03-15 15:12:00,33.0,22.0,-100.00,ENE,70,0.0,0.0,63,-99.99,,,-99.99,,2013-03-15 20:12:00,
2013-03-15 15:20:00,34.0,20.0,-100.00,ENE,75,0.0,0.0,58,-99.99,,,-99.99,,2013-03-15 20:20:00,
2013-03-15 15:42:00,34.0,20.0,-100.00,ENE,75,0.0,0.0,58,-99.99,,,-99.99,,2013-03-15 20:42:00,
2013-03-15 15:52:00,34.0,20.0,-100.00,ENE,75,0.0,0.0,58,-99.99,,,-99.99,,2013-03-15 20:52:00,
2013-03-15 16:02:00,34.0,20.0,-100.00,ENE,75,0.0,0.0,58,-99.99,,,-99.99,,2013-03-15 21:02:00,
2013-03-15 16:12:00,34.0,20.0,-100.00,ENE,75,0.0,0.0,58,-99.99,,,-99.99,,2013-03-15 21:12:00,
2013-03-15 16:20:00,33.0,20.0,-100.00,ENE,65,0.0,0.0,57,-99.99,,,-99.99,,2013-03-15 21:20:00,
2013-03-15 16:43:00,33.0,20.0,-100.00,ENE,65,0.0,0.0,57,-99.99,,,-99.99,,2013-03-15 21:43:00,
2013-03-15 16:53:00,33.0,20.0,-100.00,ENE,65,0.0,0.0,57,-99.99,,,-99.99,,2013-03-15 21:53:00,
2013-03-15 17:03:00,33.0,20.0,-100.00,ENE,65,0.0,0.0,57,-99.99,,,-99.99,,2013-03-15 22:03:00,
2013-03-15 17:13:00,33.0,20.0,-100.00,ENE,65,0.0,0.0,57,-99.99,,,-99.99,,2013-03-15 22:13:00,
2013-03-15 17:21:00,32.0,20.0,-100.00,NE,45,0.0,0.0,61,-99.99,,,-99.99,,2013-03-15 22:21:00,
2013-03-15 17:42:00,32.0,20.0,-100.00,NE,45,0.0,0.0,61,-99.99,,,-99.99,,2013-03-15 22:42:00,
2013-03-15 17:53:00,32.0,20.0,-100.00,NE,45,0.0,0.0,61,-99.99,,,-99.99,,2013-03-15 22:53:00,
2013-03-15 18:02:00,32.0,20.0,-100.00,NE,45,0.0,0.0,61,-99.99,,,-99.99,,2013-03-15 23:02:00,
2013-03-15 18:12:00,32.0,20.0,-100.00,NE,45,0.0,0.0,61,-99.99,,,-99.99,,2013-03-15 23:12:00,
2013-03-15 18:20:00,32.0,22.0,-100.00,NE,45,0.0,0.0,66,-99.99,,,-99.99,,2013-03-15 23:20:00,
2013-03-15 18:42:00,32.0,22.0,-100.00,NE,45,0.0,0.0,66,-99.99,,,-99.99,,2013-03-15 23:42:00,
2013-03-15 18:53:00,32.0,22.0,-100.00,NE,45,0.0,0.0,66,-99.99,,,-99.99,,2013-03-15 23:53:00,
2013-03-15 19:02:00,32.0,22.0,-100.00,NE,45,0.0,0.0,66,-99.99,,,-99.99,,2013-03-16 00:02:00,
2013-03-15 19:12:00,32.0,22.0,-100.00,NE,45,0.0,0.0,66,-99.99,,,-99.99,,2013-03-16 00:12:00,
2013-03-15 19:21:00,31.0,23.0,-100.00,ENE,65,0.0,0.0,71,-99.99,,,-99.99,,2013-03-16 00:21:00,
2013-03-15 19:42:00,31.0,23.0,-100.00,ENE,65,0.0,0.0,71,-99.99,,,-99.99,,2013-03-16 00:42:00,
2013-03-15 19:52:00,31.0,23.0,-100.00,ENE,65,0.0,0.0,71,-99.99,,,-99.99,,2013-03-16 00:52:00,
2013-03-15 20:02:00,31.0,23.0,-100.00,ENE,65,0.0,0.0,71,-99.99,,,-99.99,,2013-03-16 01:02:00,
2013-03-15 20:12:00,31.0,23.0,-100.00,ENE,65,0.0,0.0,71,-99.99,,,-99.99,,2013-03-16 01:12:00,
2013-03-15 20:21:00,28.0,26.0,-100.00,NE,40,0.0,0.0,91,-99.99,,,-99.99,,2013-03-16 01:21:00,
2013-03-15 20:42:00,28.0,26.0,-100.00,NE,40,0.0,0.0,91,-99.99,,,-99.99,,2013-03-16 01:42:00,
2013-03-15 20:53:00,28.0,26.0,-100.00,NE,40,0.0,0.0,91,-99.99,,,-99.99,,2013-03-16 01:53:00,
2013-03-15 21:02:00,28.0,26.0,-100.00,NE,40,0.0,0.0,91,-99.99,,,-99.99,,2013-03-16 02:02:00,
2013-03-15 21:12:00,28.0,26.0,-100.00,NE,40,0.0,0.0,91,-99.99,,,-99.99,,2013-03-16 02:12:00,
2013-03-15 21:20:00,27.0,26.0,-100.00,NE,50,0.0,0.0,95,-99.99,,,-99.99,,2013-03-16 02:20:00,
2013-03-15 21:43:00,27.0,26.0,-100.00,NE,50,0.0,0.0,95,-99.99,,,-99.99,,2013-03-16 02:43:00,
2013-03-15 21:52:00,27.0,26.0,-100.00,NE,50,0.0,0.0,95,-99.99,,,-99.99,,2013-03-16 02:52:00,
2013-03-15 22:02:00,27.0,26.0,-100.00,NE,50,0.0,0.0,95,-99.99,,,-99.99,,2013-03-16 03:02:00,
2013-03-15 22:12:00,27.0,26.0,-100.00,NE,50,0.0,0.0,95,-99.99,,,-99.99,,2013-03-16 03:12:00,
2013-03-15 22:22:00,26.0,25.0,-100.00,ENE,70,0.0,0.0,96,-99.99,,,-99.99,,2013-03-16 03:22:00,
2013-03-15 22:43:00,26.0,25.0,-100.00,ENE,70,0.0,0.0,96,-99.99,,,-99.99,,2013-03-16 03:43:00,
2013-03-15 22:53:00,26.0,25.0,-100.00,ENE,70,0.0,0.0,96,-99.99,,,-99.99,,2013-03-16 03:53:00,
2013-03-15 23:02:00,26.0,25.0,-100.00,ENE,70,0.0,0.0,96,-99.99,,,-99.99,,2013-03-16 04:02:00,
2013-03-15 23:12:00,26.0,25.0,-100.00,ENE,70,0.0,0.0,96,-99.99,,,-99.99,,2013-03-16 04:12:00,
2013-03-15 23:21:00,26.0,25.0,-100.00,ENE,70,0.0,0.0,97,-99.99,,,-99.99,,2013-03-16 04:21:00,
2013-03-15 23:43:00,26.0,25.0,-100.00,ENE,70,0.0,0.0,97,-99.99,,,-99.99,,2013-03-16 04:43:00,
2013-03-15 23:53:00,26.0,25.0,-100.00,ENE,70,0.0,0.0,97,-99.99,,,-99.99,,2013-03-16 04:53:00,